sat.trackr.live / text

‹ back to catalog

TIANHUI 5A

NORAD 58199 · 2023-168A

PAYLOAD ACTIVE UNKNOWN

§ Identity

Operator
Country
PRC
Launch date
2023-10-31
Launch site
TAISC
Launch vehicle
Mass (kg)
RCS (m²)

External: N2YO · Heavens-Above · Gunter

§ Orbital elements

Epoch: 2026-09-21T12:48:59.430816Z

Period
96.80 min
Inclination
97.8212°
Eccentricity
0.0001571
Mean motion
14.87575825 rev/d
Perigee alt
604.4 km
Apogee alt
606.6 km
Semi-major
6,983.6 km
B*
2.9569e-5
RAAN
270.5441°
Arg perigee
89.8569°
Mean anomaly
270.2828°
Rev number
15,692

§ Raw data

TIANHUI 5A1 58199U 23168A   26264.53402119  .00000214  00000+0  29569-4 0  99982 58199  97.8212 270.5441 0001571  89.8569 270.2828 14.87575825156929

JSON: /api/v1/satellites/58199 · /tle

For live sub-satellite position, see the globe view (requires WebGL).

§ Visibility from observer

Set your observer location to see the next 7 days of passes ≥ 10°. The values pass through the URL so the page stays shareable.

No JS? Fill the form by hand. The geolocation button needs JavaScript.